owner,sensor,date,latitude,longitude,vertical_datum,sea_water_practical_salinity,qcFlag 
TABS,ioos:station:wmo:42051:1,2017-05-03T18:00:00Z,29.6350,-93.6417,2.0,26.7699,11111222 
TABS,ioos:station:wmo:42051:1,2017-05-03T18:30:00Z,29.6350,-93.6417,2.0,26.7805,11111222 
TABS,ioos:station:wmo:42051:1,2017-05-03T19:00:00Z,29.6350,-93.6417,2.0,26.6448,11111222 
TABS,ioos:station:wmo:42051:1,2017-05-22T09:00:00Z,29.6350,-93.6417,2.0,21.7625,11111222 
TABS,ioos:station:wmo:42051:1,2017-05-22T09:30:00Z,29.6350,-93.6417,2.0,21.8186,11111222 
TABS,ioos:station:wmo:42051:1,2017-05-22T10:00:00Z,29.6350,-93.6417,2.0,22.1236,11111222 
TABS,ioos:station:wmo:42051:1,2017-05-22T10:30:00Z,29.6350,-93.6417,2.0,22.0151,11111222 
TABS,ioos:station:wmo:42051:1,2017-05-22T11:00:00Z,29.6350,-93.6417,2.0,22.2086,11111222 
TABS,ioos:station:wmo:42051:1,2017-05-22T11:30:00Z,29.6350,-93.6417,2.0,22.3539,11111222 
TABS,ioos:station:wmo:42051:1,2017-05-22T12:00:00Z,29.6350,-93.6417,2.0,22.633,11111222 
TABS,ioos:station:wmo:42051:1,2017-05-22T12:30:00Z,29.6350,-93.6417,2.0,23.0466,11111222 
TABS,ioos:station:wmo:42051:1,2017-05-22T13:00:00Z,29.6350,-93.6417,2.0,23.1002,11111222 
TABS,ioos:station:wmo:42051:1,2017-05-22T13:30:00Z,29.6350,-93.6417,2.0,23.0187,11111222 
TABS,ioos:station:wmo:42051:1,2017-05-22T14:00:00Z,29.6350,-93.6417,2.0,22.9655,11111222 
TABS,ioos:station:wmo:42051:1,2017-05-22T14:30:00Z,29.6350,-93.6417,2.0,22.6954,11111222 
TABS,ioos:station:wmo:42051:1,2017-05-22T15:00:00Z,29.6350,-93.6417,2.0,21.948,11111222 
TABS,ioos:station:wmo:42051:1,2017-05-22T15:30:00Z,29.6350,-93.6417,2.0,20.3966,11111222 
TABS,ioos:station:wmo:42051:1,2017-05-22T16:00:00Z,29.6350,-93.6417,2.0,19.9376,11111222 
TABS,ioos:station:wmo:42051:1,2017-05-22T16:30:00Z,29.6350,-93.6417,2.0,20.1042,11111222 
TABS,ioos:station:wmo:42051:1,2017-05-22T17:00:00Z,29.6350,-93.6417,2.0,20.2854,11111222 
TABS,ioos:station:wmo:42051:1,2017-05-22T17:30:00Z,29.6350,-93.6417,2.0,19.352,11111222 
TABS,ioos:station:wmo:42051:1,2017-05-22T18:00:00Z,29.6350,-93.6417,2.0,18.5252,11111222 
TABS,ioos:station:wmo:42051:1,2017-05-22T18:30:00Z,29.6350,-93.6417,2.0,18.8612,11111222 
TABS,ioos:station:wmo:42051:1,2017-05-22T19:00:00Z,29.6350,-93.6417,2.0,19.7894,11111222 
TABS,ioos:station:wmo:42051:1,2017-05-22T19:30:00Z,29.6350,-93.6417,2.0,19.7888,11111222 
TABS,ioos:station:wmo:42051:1,2017-05-22T20:00:00Z,29.6350,-93.6417,2.0,20.2245,11111222 
TABS,ioos:station:wmo:42051:1,2017-05-22T20:30:00Z,29.6350,-93.6417,2.0,20.9012,11111222 
TABS,ioos:station:wmo:42051:1,2017-05-22T21:00:00Z,29.6350,-93.6417,2.0,21.2977,11111222 
TABS,ioos:station:wmo:42051:1,2017-05-22T21:30:00Z,29.6350,-93.6417,2.0,21.7167,11111222 
TABS,ioos:station:wmo:42051:1,2017-05-22T22:00:00Z,29.6350,-93.6417,2.0,22.175,11111222 
TABS,ioos:station:wmo:42051:1,2017-05-22T22:30:00Z,29.6350,-93.6417,2.0,22.7382,11111222 
TABS,ioos:station:wmo:42051:1,2017-05-22T23:00:00Z,29.6350,-93.6417,2.0,23.0329,11111222 
TABS,ioos:station:wmo:42051:1,2017-05-22T23:30:00Z,29.6350,-93.6417,2.0,23.2511,11111222 
TABS,ioos:station:wmo:42051:1,2017-05-23T00:00:00Z,29.6350,-93.6417,2.0,23.2849,11111222 
TABS,ioos:station:wmo:42051:1,2017-05-23T00:30:00Z,29.6350,-93.6417,2.0,22.8961,11111222 
TABS,ioos:station:wmo:42051:1,2017-05-23T01:00:00Z,29.6350,-93.6417,2.0,22.095,11111222 
TABS,ioos:station:wmo:42051:1,2017-05-23T01:30:00Z,29.6350,-93.6417,2.0,21.3396,11111222 
TABS,ioos:station:wmo:42051:1,2017-05-23T02:00:00Z,29.6350,-93.6417,2.0,19.5185,11111222 
TABS,ioos:station:wmo:42051:1,2017-05-23T02:30:00Z,29.6350,-93.6417,2.0,19.6422,11111222 
TABS,ioos:station:wmo:42051:1,2017-05-23T03:00:00Z,29.6350,-93.6417,2.0,20.0295,11111222 
TABS,ioos:station:wmo:42051:1,2017-05-23T03:30:00Z,29.6350,-93.6417,2.0,20.5159,11111222 
TABS,ioos:station:wmo:42051:1,2017-05-23T04:00:00Z,29.6350,-93.6417,2.0,20.4752,11111222 
TABS,ioos:station:wmo:42051:1,2017-05-23T04:30:00Z,29.6350,-93.6417,2.0,20.899,11111222 
TABS,ioos:station:wmo:42051:1,2017-05-23T05:00:00Z,29.6350,-93.6417,2.0,20.8036,11111222 
TABS,ioos:station:wmo:42051:1,2017-05-23T05:30:00Z,29.6350,-93.6417,2.0,21.4397,11111222 
TABS,ioos:station:wmo:42051:1,2017-05-23T06:00:00Z,29.6350,-93.6417,2.0,20.4684,11111222 
TABS,ioos:station:wmo:42051:1,2017-05-23T06:30:00Z,29.6350,-93.6417,2.0,19.457,11111222 
TABS,ioos:station:wmo:42051:1,2017-05-23T07:00:00Z,29.6350,-93.6417,2.0,18.2737,11111222 
TABS,ioos:station:wmo:42051:1,2017-05-23T07:30:00Z,29.6350,-93.6417,2.0,20.2156,11111222 
TABS,ioos:station:wmo:42051:1,2017-05-23T08:00:00Z,29.6350,-93.6417,2.0,18.2195,11111222 
TABS,ioos:station:wmo:42051:1,2017-05-23T08:30:00Z,29.6350,-93.6417,2.0,18.0437,11111222 
TABS,ioos:station:wmo:42051:1,2017-05-23T09:00:00Z,29.6350,-93.6417,2.0,17.8717,11111222 
TABS,ioos:station:wmo:42051:1,2017-05-23T09:30:00Z,29.6350,-93.6417,2.0,17.8789,11111222 
TABS,ioos:station:wmo:42051:1,2017-05-23T10:00:00Z,29.6350,-93.6417,2.0,17.6698,11111222 
TABS,ioos:station:wmo:42051:1,2017-05-23T10:30:00Z,29.6350,-93.6417,2.0,17.8755,11111222 
TABS,ioos:station:wmo:42051:1,2017-05-23T11:00:00Z,29.6350,-93.6417,2.0,16.6817,11111222 
TABS,ioos:station:wmo:42051:1,2017-05-23T11:30:00Z,29.6350,-93.6417,2.0,17.1622,11111222 
TABS,ioos:station:wmo:42051:1,2017-05-23T12:00:00Z,29.6350,-93.6417,2.0,17.7329,11111222 
TABS,ioos:station:wmo:42051:1,2017-05-23T12:30:00Z,29.6350,-93.6417,2.0,17.9454,11111222 
TABS,ioos:station:wmo:42051:1,2017-05-23T13:00:00Z,29.6350,-93.6417,2.0,18.1752,11111222 
TABS,ioos:station:wmo:42051:1,2017-05-23T13:30:00Z,29.6350,-93.6417,2.0,18.3495,11111222 
TABS,ioos:station:wmo:42051:1,2017-05-23T14:00:00Z,29.6350,-93.6417,2.0,18.5475,11111222 
TABS,ioos:station:wmo:42051:1,2017-05-23T14:30:00Z,29.6350,-93.6417,2.0,17.9056,11111222 
TABS,ioos:station:wmo:42051:1,2017-05-23T15:00:00Z,29.6350,-93.6417,2.0,17.8816,11111222 
TABS,ioos:station:wmo:42051:1,2017-05-23T15:30:00Z,29.6350,-93.6417,2.0,17.9186,11111222 
TABS,ioos:station:wmo:42051:1,2017-05-23T16:00:00Z,29.6350,-93.6417,2.0,18.0071,11111222 
TABS,ioos:station:wmo:42051:1,2017-05-23T16:30:00Z,29.6350,-93.6417,2.0,18.0618,11111222 
TABS,ioos:station:wmo:42051:1,2017-05-23T17:00:00Z,29.6350,-93.6417,2.0,17.9759,11111222 
TABS,ioos:station:wmo:42051:1,2017-05-23T17:30:00Z,29.6350,-93.6417,2.0,17.9973,11111222 
TABS,ioos:station:wmo:42051:1,2017-05-23T18:00:00Z,29.6350,-93.6417,2.0,17.9884,11111222 
TABS,ioos:station:wmo:42051:1,2017-05-23T18:30:00Z,29.6350,-93.6417,2.0,17.8288,11111222 
TABS,ioos:station:wmo:42051:1,2017-05-23T19:00:00Z,29.6350,-93.6417,2.0,17.6418,11111222 
TABS,ioos:station:wmo:42051:1,2017-05-23T19:30:00Z,29.6350,-93.6417,2.0,17.5545,11111222 
TABS,ioos:station:wmo:42051:1,2017-05-23T20:00:00Z,29.6350,-93.6417,2.0,17.5354,11111222 
TABS,ioos:station:wmo:42051:1,2017-05-23T20:30:00Z,29.6350,-93.6417,2.0,17.4909,11111222 
TABS,ioos:station:wmo:42051:1,2017-05-23T21:00:00Z,29.6350,-93.6417,2.0,17.4307,11111222 
TABS,ioos:station:wmo:42051:1,2017-05-23T21:30:00Z,29.6350,-93.6417,2.0,17.2621,11111222 
TABS,ioos:station:wmo:42051:1,2017-05-23T22:00:00Z,29.6350,-93.6417,2.0,17.2347,11111222 
TABS,ioos:station:wmo:42051:1,2017-05-23T22:30:00Z,29.6350,-93.6417,2.0,17.061,11111222 
TABS,ioos:station:wmo:42051:1,2017-05-23T23:00:00Z,29.6350,-93.6417,2.0,16.9408,11111222 
TABS,ioos:station:wmo:42051:1,2017-05-23T23:30:00Z,29.6350,-93.6417,2.0,16.8094,11111222 
TABS,ioos:station:wmo:42051:1,2017-05-24T00:00:00Z,29.6350,-93.6417,2.0,16.6687,11111222 
TABS,ioos:station:wmo:42051:1,2017-05-24T00:30:00Z,29.6350,-93.6417,2.0,16.6763,11111222 
TABS,ioos:station:wmo:42051:1,2017-05-24T01:00:00Z,29.6350,-93.6417,2.0,16.7954,11111222 
TABS,ioos:station:wmo:42051:1,2017-05-24T01:30:00Z,29.6350,-93.6417,2.0,17.3024,11111222 
TABS,ioos:station:wmo:42051:1,2017-05-24T02:00:00Z,29.6350,-93.6417,2.0,17.5292,11111222 
TABS,ioos:station:wmo:42051:1,2017-05-24T02:30:00Z,29.6350,-93.6417,2.0,17.5029,11111222 
TABS,ioos:station:wmo:42051:1,2017-05-24T03:00:00Z,29.6350,-93.6417,2.0,17.3849,11111222 
TABS,ioos:station:wmo:42051:1,2017-05-24T03:30:00Z,29.6350,-93.6417,2.0,17.1712,11111222 
TABS,ioos:station:wmo:42051:1,2017-05-24T04:00:00Z,29.6350,-93.6417,2.0,17.4135,11111222 
TABS,ioos:station:wmo:42051:1,2017-05-24T04:30:00Z,29.6350,-93.6417,2.0,17.6771,11111222 
TABS,ioos:station:wmo:42051:1,2017-05-24T05:00:00Z,29.6350,-93.6417,2.0,18.0146,11111222 
TABS,ioos:station:wmo:42051:1,2017-05-24T05:30:00Z,29.6350,-93.6417,2.0,18.1652,11111222 
TABS,ioos:station:wmo:42051:1,2017-05-24T06:00:00Z,29.6350,-93.6417,2.0,18.1352,11111222 
TABS,ioos:station:wmo:42051:1,2017-05-24T06:30:00Z,29.6350,-93.6417,2.0,18.0316,11111222 
TABS,ioos:station:wmo:42051:1,2017-05-24T07:00:00Z,29.6350,-93.6417,2.0,17.9609,11111222 
TABS,ioos:station:wmo:42051:1,2017-05-24T07:30:00Z,29.6350,-93.6417,2.0,17.8356,11111222 
TABS,ioos:station:wmo:42051:1,2017-05-24T08:00:00Z,29.6350,-93.6417,2.0,17.8182,11111222 
TABS,ioos:station:wmo:42051:1,2017-05-24T08:30:00Z,29.6350,-93.6417,2.0,17.9669,11111222 
TABS,ioos:station:wmo:42051:1,2017-05-24T09:00:00Z,29.6350,-93.6417,2.0,18.3618,11111222 
TABS,ioos:station:wmo:42051:1,2017-05-24T09:30:00Z,29.6350,-93.6417,2.0,18.3266,11111222 
TABS,ioos:station:wmo:42051:1,2017-05-24T10:00:00Z,29.6350,-93.6417,2.0,18.5605,11111222 
TABS,ioos:station:wmo:42051:1,2017-05-24T10:30:00Z,29.6350,-93.6417,2.0,18.6408,11111222 
TABS,ioos:station:wmo:42051:1,2017-05-24T11:00:00Z,29.6350,-93.6417,2.0,18.6666,11111222 
TABS,ioos:station:wmo:42051:1,2017-05-24T11:30:00Z,29.6350,-93.6417,2.0,18.7946,11111222 
TABS,ioos:station:wmo:42051:1,2017-05-24T12:00:00Z,29.6350,-93.6417,2.0,18.9324,11111222 
TABS,ioos:station:wmo:42051:1,2017-05-24T12:30:00Z,29.6350,-93.6417,2.0,19.2057,11111222 
TABS,ioos:station:wmo:42051:1,2017-05-24T13:00:00Z,29.6350,-93.6417,2.0,19.321,11111222 
TABS,ioos:station:wmo:42051:1,2017-05-24T13:30:00Z,29.6350,-93.6417,2.0,19.3984,11111222 
TABS,ioos:station:wmo:42051:1,2017-05-24T14:00:00Z,29.6350,-93.6417,2.0,19.4742,11111222 
TABS,ioos:station:wmo:42051:1,2017-05-24T14:30:00Z,29.6350,-93.6417,2.0,19.4673,11111222 
TABS,ioos:station:wmo:42051:1,2017-05-24T15:00:00Z,29.6350,-93.6417,2.0,19.4368,11111222 
TABS,ioos:station:wmo:42051:1,2017-05-24T15:30:00Z,29.6350,-93.6417,2.0,19.4901,11111222 
TABS,ioos:station:wmo:42051:1,2017-05-24T16:00:00Z,29.6350,-93.6417,2.0,19.5859,11111222 
TABS,ioos:station:wmo:42051:1,2017-05-24T16:30:00Z,29.6350,-93.6417,2.0,19.644,11111222 
TABS,ioos:station:wmo:42051:1,2017-05-24T17:00:00Z,29.6350,-93.6417,2.0,19.6707,11111222 
TABS,ioos:station:wmo:42051:1,2017-05-24T17:30:00Z,29.6350,-93.6417,2.0,19.7625,11111222 
TABS,ioos:station:wmo:42051:1,2017-05-24T18:00:00Z,29.6350,-93.6417,2.0,19.8501,11111222 
TABS,ioos:station:wmo:42051:1,2017-05-24T18:30:00Z,29.6350,-93.6417,2.0,19.9909,11111222 
TABS,ioos:station:wmo:42051:1,2017-05-24T19:00:00Z,29.6350,-93.6417,2.0,20.1572,11111222 
TABS,ioos:station:wmo:42051:1,2017-05-24T19:30:00Z,29.6350,-93.6417,2.0,20.3093,11111222 
TABS,ioos:station:wmo:42051:1,2017-05-24T20:00:00Z,29.6350,-93.6417,2.0,20.3694,11111222 
TABS,ioos:station:wmo:42051:1,2017-05-24T20:30:00Z,29.6350,-93.6417,2.0,20.4381,11111222 
TABS,ioos:station:wmo:42051:1,2017-05-24T21:00:00Z,29.6350,-93.6417,2.0,20.5047,11111222 
TABS,ioos:station:wmo:42051:1,2017-05-24T21:30:00Z,29.6350,-93.6417,2.0,20.4259,11111222 
TABS,ioos:station:wmo:42051:1,2017-05-24T22:00:00Z,29.6350,-93.6417,2.0,20.4932,11111222 
TABS,ioos:station:wmo:42051:1,2017-05-24T22:30:00Z,29.6350,-93.6417,2.0,20.5795,11111222 
TABS,ioos:station:wmo:42051:1,2017-05-24T23:00:00Z,29.6350,-93.6417,2.0,20.5566,11111222 
TABS,ioos:station:wmo:42051:1,2017-05-24T23:30:00Z,29.6350,-93.6417,2.0,20.454,11111222 
TABS,ioos:station:wmo:42051:1,2017-05-25T00:00:00Z,29.6350,-93.6417,2.0,20.3062,11111222 
TABS,ioos:station:wmo:42051:1,2017-05-25T00:30:00Z,29.6350,-93.6417,2.0,20.2179,11111222 
TABS,ioos:station:wmo:42051:1,2017-05-25T01:00:00Z,29.6350,-93.6417,2.0,20.2227,11111222 
TABS,ioos:station:wmo:42051:1,2017-05-25T01:30:00Z,29.6350,-93.6417,2.0,20.1222,11111222 
TABS,ioos:station:wmo:42051:1,2017-05-25T02:00:00Z,29.6350,-93.6417,2.0,18.451,11111222 
TABS,ioos:station:wmo:42051:1,2017-05-25T02:30:00Z,29.6350,-93.6417,2.0,18.2305,11111222 
TABS,ioos:station:wmo:42051:1,2017-05-25T03:00:00Z,29.6350,-93.6417,2.0,18.1681,11111222 
TABS,ioos:station:wmo:42051:1,2017-05-25T03:30:00Z,29.6350,-93.6417,2.0,18.0666,11111222 
TABS,ioos:station:wmo:42051:1,2017-05-25T04:00:00Z,29.6350,-93.6417,2.0,17.8962,11111222 
TABS,ioos:station:wmo:42051:1,2017-05-25T04:30:00Z,29.6350,-93.6417,2.0,17.9737,11111222 
TABS,ioos:station:wmo:42051:1,2017-05-25T05:00:00Z,29.6350,-93.6417,2.0,18.0084,11111222 
TABS,ioos:station:wmo:42051:1,2017-05-25T05:30:00Z,29.6350,-93.6417,2.0,18.1786,11111222 
TABS,ioos:station:wmo:42051:1,2017-05-25T06:00:00Z,29.6350,-93.6417,2.0,18.2459,11111222 
TABS,ioos:station:wmo:42051:1,2017-05-25T06:30:00Z,29.6350,-93.6417,2.0,18.254,11111222 
TABS,ioos:station:wmo:42051:1,2017-05-25T07:00:00Z,29.6350,-93.6417,2.0,18.2311,11111222 
TABS,ioos:station:wmo:42051:1,2017-05-25T07:30:00Z,29.6350,-93.6417,2.0,18.7548,11111222 
TABS,ioos:station:wmo:42051:1,2017-05-25T08:00:00Z,29.6350,-93.6417,2.0,18.6961,11111222 
TABS,ioos:station:wmo:42051:1,2017-05-25T08:30:00Z,29.6350,-93.6417,2.0,18.7845,11111222 
TABS,ioos:station:wmo:42051:1,2017-05-25T09:00:00Z,29.6350,-93.6417,2.0,18.8993,11111222 
TABS,ioos:station:wmo:42051:1,2017-05-25T09:30:00Z,29.6350,-93.6417,2.0,19.4838,11111222 
TABS,ioos:station:wmo:42051:1,2017-05-25T10:00:00Z,29.6350,-93.6417,2.0,19.6994,11111222 
TABS,ioos:station:wmo:42051:1,2017-05-25T10:30:00Z,29.6350,-93.6417,2.0,19.8573,11111222 
TABS,ioos:station:wmo:42051:1,2017-05-25T11:00:00Z,29.6350,-93.6417,2.0,19.7328,11111222 
TABS,ioos:station:wmo:42051:1,2017-05-25T11:30:00Z,29.6350,-93.6417,2.0,19.8036,11111222 
TABS,ioos:station:wmo:42051:1,2017-05-25T12:00:00Z,29.6350,-93.6417,2.0,20.2629,11111222 
TABS,ioos:station:wmo:42051:1,2017-05-25T12:30:00Z,29.6350,-93.6417,2.0,20.4341,11111222 
TABS,ioos:station:wmo:42051:1,2017-05-25T13:00:00Z,29.6350,-93.6417,2.0,20.3324,11111222 
TABS,ioos:station:wmo:42051:1,2017-05-25T13:30:00Z,29.6350,-93.6417,2.0,20.2741,11111222 
TABS,ioos:station:wmo:42051:1,2017-05-25T14:00:00Z,29.6350,-93.6417,2.0,21.0756,11111222 
TABS,ioos:station:wmo:42051:1,2017-05-25T14:30:00Z,29.6350,-93.6417,2.0,21.0257,11111222 
TABS,ioos:station:wmo:42051:1,2017-05-25T15:00:00Z,29.6350,-93.6417,2.0,21.0808,11111222 
TABS,ioos:station:wmo:42051:1,2017-05-25T15:30:00Z,29.6350,-93.6417,2.0,22.3166,11111222 
TABS,ioos:station:wmo:42051:1,2017-05-25T16:00:00Z,29.6350,-93.6417,2.0,23.0184,11111222 
TABS,ioos:station:wmo:42051:1,2017-05-25T16:30:00Z,29.6350,-93.6417,2.0,21.8239,11111222 
TABS,ioos:station:wmo:42051:1,2017-05-25T17:00:00Z,29.6350,-93.6417,2.0,21.9544,11111222 
TABS,ioos:station:wmo:42051:1,2017-05-25T17:30:00Z,29.6350,-93.6417,2.0,22.0167,11111222 
TABS,ioos:station:wmo:42051:1,2017-05-25T18:00:00Z,29.6350,-93.6417,2.0,22.3596,11111222 
TABS,ioos:station:wmo:42051:1,2017-05-25T18:30:00Z,29.6350,-93.6417,2.0,22.6661,11111222 
TABS,ioos:station:wmo:42051:1,2017-05-25T19:00:00Z,29.6350,-93.6417,2.0,23.0914,11111222 
TABS,ioos:station:wmo:42051:1,2017-05-25T19:30:00Z,29.6350,-93.6417,2.0,23.5933,11111222 
TABS,ioos:station:wmo:42051:1,2017-05-25T20:00:00Z,29.6350,-93.6417,2.0,23.8844,11111222 
TABS,ioos:station:wmo:42051:1,2017-05-25T20:30:00Z,29.6350,-93.6417,2.0,24.4502,11111222 
TABS,ioos:station:wmo:42051:1,2017-05-25T21:00:00Z,29.6350,-93.6417,2.0,24.9829,11111222 
TABS,ioos:station:wmo:42051:1,2017-05-25T21:30:00Z,29.6350,-93.6417,2.0,25.2304,11111222 
TABS,ioos:station:wmo:42051:1,2017-05-25T22:00:00Z,29.6350,-93.6417,2.0,24.992,11111222 
TABS,ioos:station:wmo:42051:1,2017-05-25T22:30:00Z,29.6350,-93.6417,2.0,24.2562,11111222 
TABS,ioos:station:wmo:42051:1,2017-05-25T23:00:00Z,29.6350,-93.6417,2.0,24.2067,11111222 
TABS,ioos:station:wmo:42051:1,2017-05-25T23:30:00Z,29.6350,-93.6417,2.0,24.1242,11111222 
TABS,ioos:station:wmo:42051:1,2017-05-26T00:00:00Z,29.6350,-93.6417,2.0,24.1772,11111222 
TABS,ioos:station:wmo:42051:1,2017-05-26T00:30:00Z,29.6350,-93.6417,2.0,23.9471,11111222 
TABS,ioos:station:wmo:42051:1,2017-05-26T01:00:00Z,29.6350,-93.6417,2.0,23.92,11111222 
TABS,ioos:station:wmo:42051:1,2017-05-26T01:30:00Z,29.6350,-93.6417,2.0,23.9895,11111222 
TABS,ioos:station:wmo:42051:1,2017-05-26T02:00:00Z,29.6350,-93.6417,2.0,24.0936,11111222 
TABS,ioos:station:wmo:42051:1,2017-05-26T02:30:00Z,29.6350,-93.6417,2.0,24.1279,11111222 
TABS,ioos:station:wmo:42051:1,2017-05-26T03:00:00Z,29.6350,-93.6417,2.0,24.1256,11111222 
TABS,ioos:station:wmo:42051:1,2017-05-26T03:30:00Z,29.6350,-93.6417,2.0,24.1896,11111222 
TABS,ioos:station:wmo:42051:1,2017-05-26T04:00:00Z,29.6350,-93.6417,2.0,24.4254,11111222 
TABS,ioos:station:wmo:42051:1,2017-05-26T04:30:00Z,29.6350,-93.6417,2.0,24.806,11111222 
TABS,ioos:station:wmo:42051:1,2017-05-26T05:00:00Z,29.6350,-93.6417,2.0,25.1744,11111222 
TABS,ioos:station:wmo:42051:1,2017-05-26T05:30:00Z,29.6350,-93.6417,2.0,25.5127,11111222 
TABS,ioos:station:wmo:42051:1,2017-05-26T06:00:00Z,29.6350,-93.6417,2.0,25.8612,11111222 
TABS,ioos:station:wmo:42051:1,2017-05-26T06:30:00Z,29.6350,-93.6417,2.0,25.3526,11111222 
TABS,ioos:station:wmo:42051:1,2017-05-26T07:00:00Z,29.6350,-93.6417,2.0,25.5703,11111222 
TABS,ioos:station:wmo:42051:1,2017-05-26T07:30:00Z,29.6350,-93.6417,2.0,25.5125,11111222 
TABS,ioos:station:wmo:42051:1,2017-05-26T08:00:00Z,29.6350,-93.6417,2.0,25.4578,11111222 
TABS,ioos:station:wmo:42051:1,2017-05-26T08:30:00Z,29.6350,-93.6417,2.0,25.2904,11111222 
TABS,ioos:station:wmo:42051:1,2017-05-26T09:00:00Z,29.6350,-93.6417,2.0,25.2835,11111222 
TABS,ioos:station:wmo:42051:1,2017-05-26T09:30:00Z,29.6350,-93.6417,2.0,25.1051,11111222 
TABS,ioos:station:wmo:42051:1,2017-05-26T10:00:00Z,29.6350,-93.6417,2.0,25.3852,11111222 
TABS,ioos:station:wmo:42051:1,2017-05-26T10:30:00Z,29.6350,-93.6417,2.0,25.4492,11111222 
TABS,ioos:station:wmo:42051:1,2017-05-26T11:00:00Z,29.6350,-93.6417,2.0,25.2318,11111222 
TABS,ioos:station:wmo:42051:1,2017-05-26T11:30:00Z,29.6350,-93.6417,2.0,25.5461,11111222 
TABS,ioos:station:wmo:42051:1,2017-05-26T12:00:00Z,29.6350,-93.6417,2.0,25.4076,11111222 
TABS,ioos:station:wmo:42051:1,2017-05-26T12:30:00Z,29.6350,-93.6417,2.0,25.5112,11111222 
TABS,ioos:station:wmo:42051:1,2017-05-26T13:00:00Z,29.6350,-93.6417,2.0,25.4128,11111222 
TABS,ioos:station:wmo:42051:1,2017-05-26T13:30:00Z,29.6350,-93.6417,2.0,25.1795,11111222 
TABS,ioos:station:wmo:42051:1,2017-05-26T14:00:00Z,29.6350,-93.6417,2.0,25.4405,11111222 
TABS,ioos:station:wmo:42051:1,2017-05-26T14:30:00Z,29.6350,-93.6417,2.0,25.7594,11111222 
TABS,ioos:station:wmo:42051:1,2017-05-26T15:00:00Z,29.6350,-93.6417,2.0,25.8112,11111222 
TABS,ioos:station:wmo:42051:1,2017-05-26T15:30:00Z,29.6350,-93.6417,2.0,25.7752,11111222 
TABS,ioos:station:wmo:42051:1,2017-05-26T16:00:00Z,29.6350,-93.6417,2.0,25.5837,11111222 
TABS,ioos:station:wmo:42051:1,2017-05-26T16:30:00Z,29.6350,-93.6417,2.0,25.4749,11111222 
TABS,ioos:station:wmo:42051:1,2017-05-26T17:00:00Z,29.6350,-93.6417,2.0,25.4171,11111222 
TABS,ioos:station:wmo:42051:1,2017-05-26T17:30:00Z,29.6350,-93.6417,2.0,25.3222,11111222 
TABS,ioos:station:wmo:42051:1,2017-05-26T18:00:00Z,29.6350,-93.6417,2.0,25.4637,11111222 
TABS,ioos:station:wmo:42051:1,2017-05-26T18:30:00Z,29.6350,-93.6417,2.0,25.3161,11111222 
TABS,ioos:station:wmo:42051:1,2017-05-26T19:00:00Z,29.6350,-93.6417,2.0,25.3123,11111222 
TABS,ioos:station:wmo:42051:1,2017-05-26T19:30:00Z,29.6350,-93.6417,2.0,25.5102,11111222 
TABS,ioos:station:wmo:42051:1,2017-05-26T20:00:00Z,29.6350,-93.6417,2.0,25.5889,11111222 
TABS,ioos:station:wmo:42051:1,2017-05-26T20:30:00Z,29.6350,-93.6417,2.0,25.1285,11111222 
TABS,ioos:station:wmo:42051:1,2017-05-26T21:00:00Z,29.6350,-93.6417,2.0,25.4007,11111222 
TABS,ioos:station:wmo:42051:1,2017-05-26T21:30:00Z,29.6350,-93.6417,2.0,25.5851,11111222 
TABS,ioos:station:wmo:42051:1,2017-05-26T22:00:00Z,29.6350,-93.6417,2.0,25.5785,11111222 
TABS,ioos:station:wmo:42051:1,2017-05-26T22:30:00Z,29.6350,-93.6417,2.0,25.6252,11111222 
TABS,ioos:station:wmo:42051:1,2017-05-26T23:00:00Z,29.6350,-93.6417,2.0,25.6432,11111222 
TABS,ioos:station:wmo:42051:1,2017-05-26T23:30:00Z,29.6350,-93.6417,2.0,25.6839,11111222 
TABS,ioos:station:wmo:42051:1,2017-05-27T00:00:00Z,29.6350,-93.6417,2.0,25.7428,11111222 
TABS,ioos:station:wmo:42051:1,2017-05-27T00:30:00Z,29.6350,-93.6417,2.0,25.719,11111222 
TABS,ioos:station:wmo:42051:1,2017-05-27T01:00:00Z,29.6350,-93.6417,2.0,25.6843,11111222 
TABS,ioos:station:wmo:42051:1,2017-05-27T01:30:00Z,29.6350,-93.6417,2.0,25.7803,11111222 
TABS,ioos:station:wmo:42051:1,2017-05-27T02:00:00Z,29.6350,-93.6417,2.0,25.7988,11111222 
TABS,ioos:station:wmo:42051:1,2017-05-27T02:30:00Z,29.6350,-93.6417,2.0,25.7867,11111222 
TABS,ioos:station:wmo:42051:1,2017-05-27T03:00:00Z,29.6350,-93.6417,2.0,25.7055,11111222 
TABS,ioos:station:wmo:42051:1,2017-05-27T03:30:00Z,29.6350,-93.6417,2.0,25.6073,11111222 
TABS,ioos:station:wmo:42051:1,2017-05-27T04:00:00Z,29.6350,-93.6417,2.0,25.7188,11111222 
TABS,ioos:station:wmo:42051:1,2017-05-27T04:30:00Z,29.6350,-93.6417,2.0,25.6872,11111222 
TABS,ioos:station:wmo:42051:1,2017-05-27T05:00:00Z,29.6350,-93.6417,2.0,25.6791,11111222 
TABS,ioos:station:wmo:42051:1,2017-05-27T05:30:00Z,29.6350,-93.6417,2.0,25.6187,11111222 
TABS,ioos:station:wmo:42051:1,2017-05-27T06:00:00Z,29.6350,-93.6417,2.0,25.6424,11111222 
TABS,ioos:station:wmo:42051:1,2017-05-27T06:30:00Z,29.6350,-93.6417,2.0,25.4893,11111222 
TABS,ioos:station:wmo:42051:1,2017-05-27T07:00:00Z,29.6350,-93.6417,2.0,25.473,11111222 
TABS,ioos:station:wmo:42051:1,2017-05-27T07:30:00Z,29.6350,-93.6417,2.0,25.2657,11111222 
TABS,ioos:station:wmo:42051:1,2017-05-27T08:00:00Z,29.6350,-93.6417,2.0,25.0908,11111222 
TABS,ioos:station:wmo:42051:1,2017-05-27T08:30:00Z,29.6350,-93.6417,2.0,25.0823,11111222 
TABS,ioos:station:wmo:42051:1,2017-05-27T09:00:00Z,29.6350,-93.6417,2.0,25.0991,11111222 
TABS,ioos:station:wmo:42051:1,2017-05-27T09:30:00Z,29.6350,-93.6417,2.0,24.9621,11111222 
TABS,ioos:station:wmo:42051:1,2017-05-27T10:00:00Z,29.6350,-93.6417,2.0,24.6829,11111222 
TABS,ioos:station:wmo:42051:1,2017-05-27T10:30:00Z,29.6350,-93.6417,2.0,24.8356,11111222 
TABS,ioos:station:wmo:42051:1,2017-05-27T11:00:00Z,29.6350,-93.6417,2.0,24.8344,11111222 
TABS,ioos:station:wmo:42051:1,2017-05-27T11:30:00Z,29.6350,-93.6417,2.0,24.8664,11111222 
TABS,ioos:station:wmo:42051:1,2017-05-27T12:00:00Z,29.6350,-93.6417,2.0,25.0205,11111222 
TABS,ioos:station:wmo:42051:1,2017-05-27T12:30:00Z,29.6350,-93.6417,2.0,25.0005,11111222 
TABS,ioos:station:wmo:42051:1,2017-05-27T13:00:00Z,29.6350,-93.6417,2.0,25.1589,11111222 
TABS,ioos:station:wmo:42051:1,2017-05-27T13:30:00Z,29.6350,-93.6417,2.0,25.0787,11111222 
TABS,ioos:station:wmo:42051:1,2017-05-27T14:00:00Z,29.6350,-93.6417,2.0,25.1565,11111222 
TABS,ioos:station:wmo:42051:1,2017-05-27T14:30:00Z,29.6350,-93.6417,2.0,25.2197,11111222 
TABS,ioos:station:wmo:42051:1,2017-05-27T15:00:00Z,29.6350,-93.6417,2.0,25.2319,11111222 
TABS,ioos:station:wmo:42051:1,2017-05-27T15:30:00Z,29.6350,-93.6417,2.0,25.2134,11111222 
TABS,ioos:station:wmo:42051:1,2017-05-27T16:00:00Z,29.6350,-93.6417,2.0,24.9995,11111222 
TABS,ioos:station:wmo:42051:1,2017-05-27T16:30:00Z,29.6350,-93.6417,2.0,24.9447,11111222 
TABS,ioos:station:wmo:42051:1,2017-05-27T17:00:00Z,29.6350,-93.6417,2.0,25.0535,11111222 
TABS,ioos:station:wmo:42051:1,2017-05-27T17:30:00Z,29.6350,-93.6417,2.0,25.1507,11111222 
TABS,ioos:station:wmo:42051:1,2017-05-27T18:00:00Z,29.6350,-93.6417,2.0,25.2359,11111222 
TABS,ioos:station:wmo:42051:1,2017-05-27T18:30:00Z,29.6350,-93.6417,2.0,25.147,11111222 
TABS,ioos:station:wmo:42051:1,2017-05-27T19:00:00Z,29.6350,-93.6417,2.0,25.2645,11111222 
TABS,ioos:station:wmo:42051:1,2017-05-27T19:30:00Z,29.6350,-93.6417,2.0,25.2619,11111222 